Weather History for Massena, NY

Change the Weather History Date:

Monday, December 2, 2013

  Actual Average Record
Temperature  
Mean Temperature 30 °F 28 °F  
Max Temperature 31 °F 36 °F 59 °F (1970)
Min Temperature 29 °F 21 °F -9 °F (1971)
Degree Days  
Heating Degree Days 35 37  
Month to date heating degree days 74 73  
Since 1 July heating degree days 1825 1842  
Moisture  
Dew Point 28 °F    
Average Humidity 93    
Maximum Humidity 100    
Minimum Humidity 85    
Precipitation  
Precipitation 0.01 in 0.08 in 0.66 in (1986)
Month to date precipitation 0.03 0.17  
Year to date precipitation 33.91 32.70  
Sea Level Pressure  
Sea Level Pressure 29.96 in    
Wind  
Wind Speed 5 mph (ENE)    
Max Wind Speed 10 mph    
Max Gust Speed 15 mph    
Visibility 3 miles    
Events Snow    
T = Trace of Precipitation, MM = Missing Value Source: NWS Daily Summary

Daily Weather History Graph

Daily Weather History Graph

Search for Another Location

Airport:

Trip Planner

Search our weather history database for the weather conditions in past years. The results will help you decide how hot, cold, wet, or windy it might be!

Date:

Astronomy

Dec. 02, 2013 Rise Set
Actual Time 7:18 AM EST 4:19 PM EST
Civil Twilight 6:45 AM EST 4:52 PM EST
Nautical Twilight 6:08 AM EST 5:28 PM EST
Astronomical Twilight 5:33 AM EST 6:04 PM EST
Moon 6:39 AM EST (12/2) 4:21 PM EST (12/2)
Length of Visible Light 10h 06m
Length of Day
9h 00m
Waning Crescent, 0% of the Moon is Illuminated
Dec 2
Waning Crescent
Dec 2
New
Dec 9
First Quarter
Dec 17
Full
Dec 25
Last Quarter

Hourly Weather History & Observations

Time (EST) Temp. Windchill Dew Point Humidity Pressure Visibility Wind Dir Wind Speed Gust Speed Precip Events Conditions
12:53 AM 30.9 °F 24.3 °F 28.9 °F 92% 30.05 in 3.0 mi East 6.9 mph - N/A   Overcast
1:45 AM 30.2 °F 23.4 °F 28.4 °F 93% 30.03 in 2.5 mi NNE 6.9 mph - N/A   Overcast
1:53 AM 30.0 °F 23.2 °F 28.0 °F 92% 30.05 in 2.5 mi NE 6.9 mph - N/A   Overcast
2:12 AM 30.2 °F 23.4 °F 28.4 °F 93% 30.03 in 1.5 mi NE 6.9 mph - N/A   Overcast
2:23 AM 30.2 °F 23.4 °F 28.4 °F 93% 30.02 in 1.2 mi NE 6.9 mph - 0.00 in Snow Light Snow
2:53 AM 30.0 °F 22.4 °F 28.0 °F 92% 30.03 in 1.2 mi NE 8.1 mph - 0.00 in Snow Light Snow
3:05 AM 30.2 °F 23.4 °F 28.4 °F 93% 30.01 in 1.5 mi NE 6.9 mph - 0.00 in   Overcast
3:35 AM 30.2 °F 24.3 °F 28.4 °F 93% 30.00 in 2.0 mi NE 5.8 mph - 0.00 in   Overcast
3:53 AM 28.9 °F 21.9 °F 28.0 °F 96% 30.03 in 2.0 mi NE 6.9 mph - 0.00 in   Overcast
4:53 AM 28.9 °F 22.8 °F 28.0 °F 96% 30.01 in 2.0 mi NE 5.8 mph - N/A   Overcast
5:30 AM 30.2 °F 21.9 °F 26.6 °F 86% 29.99 in 3.0 mi ENE 9.2 mph - N/A   Overcast
5:53 AM 30.0 °F 22.4 °F 27.0 °F 88% 30.00 in 2.5 mi East 8.1 mph - N/A   Overcast
6:53 AM 28.9 °F 21.9 °F 27.0 °F 92% 30.00 in 2.0 mi ENE 6.9 mph - N/A   Overcast
7:34 AM 28.4 °F 23.3 °F 26.6 °F 93% 29.98 in 1.5 mi East 4.6 mph - N/A   Overcast
7:45 AM 28.4 °F 20.4 °F 26.6 °F 93% 29.98 in 1.2 mi ENE 8.1 mph - N/A   Overcast
7:53 AM 28.9 °F 21.1 °F 27.0 °F 92% 29.99 in 1.5 mi ENE 8.1 mph - N/A   Overcast
8:32 AM 28.4 °F 20.4 °F 26.6 °F 93% 29.98 in 1.2 mi ENE 8.1 mph - N/A   Overcast
8:40 AM 28.4 °F 22.2 °F 28.4 °F 100% 29.98 in 1.5 mi East 5.8 mph - N/A   Overcast
8:53 AM 30.0 °F 23.2 °F 28.0 °F 92% 30.00 in 1.8 mi East 6.9 mph - N/A   Overcast
9:00 AM 30.2 °F 23.4 °F 28.4 °F 93% 29.98 in 2.0 mi ENE 6.9 mph - N/A   Overcast
9:53 AM 30.0 °F 21.7 °F 28.0 °F 92% 29.99 in 2.5 mi East 9.2 mph - N/A   Overcast
10:02 AM 30.2 °F 22.6 °F 28.4 °F 93% 29.97 in 3.0 mi East 8.1 mph - N/A   Overcast
10:26 AM 30.2 °F 21.9 °F 26.6 °F 86% 29.97 in 3.0 mi East 9.2 mph - N/A   Overcast
10:53 AM 30.9 °F 24.3 °F 27.0 °F 85% 29.98 in 4.0 mi ENE 6.9 mph - N/A   Overcast
11:38 AM 30.2 °F 24.3 °F 28.4 °F 93% 29.95 in 2.5 mi ENE 5.8 mph - 0.00 in Snow Light Snow
11:53 AM 30.9 °F 25.2 °F 28.0 °F 89% 29.96 in 3.0 mi East 5.8 mph - 0.00 in   Overcast
12:16 PM 30.2 °F 25.4 °F 28.4 °F 93% 29.94 in 2.0 mi ENE 4.6 mph - 0.00 in Snow Light Snow
12:43 PM 30.2 °F 25.4 °F 28.4 °F 93% 29.94 in 3.0 mi East 4.6 mph - 0.00 in   Overcast
12:53 PM 30.9 °F - 28.0 °F 89% 29.95 in 3.0 mi Calm Calm - 0.00 in   Overcast
1:03 PM 30.2 °F 25.4 °F 28.4 °F 93% 29.93 in 2.5 mi East 4.6 mph - 0.00 in Snow Light Snow
1:32 PM 30.2 °F 24.3 °F 28.4 °F 93% 29.93 in 2.0 mi ENE 5.8 mph - 0.01 in Snow Light Snow
1:53 PM 30.9 °F 25.2 °F 28.0 °F 89% 29.94 in 2.0 mi East 5.8 mph - 0.01 in Snow Light Snow
2:34 PM 30.2 °F 25.4 °F 28.4 °F 93% 29.91 in 3.0 mi East 4.6 mph - 0.00 in   Overcast
2:53 PM 30.9 °F 27.5 °F 28.0 °F 89% 29.93 in 3.0 mi ENE 3.5 mph - 0.00 in   Overcast
3:04 PM 30.2 °F - 28.4 °F 93% 29.91 in 3.0 mi Calm Calm - N/A   Overcast
3:53 PM 30.9 °F 26.2 °F 28.0 °F 89% 29.93 in 3.0 mi East 4.6 mph - N/A   Overcast
4:53 PM 30.9 °F 26.2 °F 28.9 °F 92% 29.93 in 4.0 mi East 4.6 mph - N/A   Overcast
5:09 PM 30.2 °F 25.4 °F 28.4 °F 93% 29.91 in 4.0 mi East 4.6 mph - N/A   Overcast
5:16 PM 30.2 °F 26.7 °F 28.4 °F 93% 29.91 in 5.0 mi East 3.5 mph - N/A   Overcast
5:31 PM 30.2 °F 25.4 °F 28.4 °F 93% 29.92 in 4.0 mi East 4.6 mph - 0.00 in Snow Light Snow
5:43 PM 30.2 °F 26.7 °F 28.4 °F 93% 29.92 in 2.5 mi East 3.5 mph - 0.00 in Snow Light Snow
5:53 PM 30.9 °F 27.5 °F 28.9 °F 92% 29.94 in 2.5 mi East 3.5 mph - 0.00 in Snow Light Snow
6:00 PM 30.2 °F 26.7 °F 28.4 °F 93% 29.92 in 3.0 mi East 3.5 mph - 0.00 in Snow Light Snow
6:19 PM 30.2 °F 25.4 °F 28.4 °F 93% 29.92 in 3.0 mi East 4.6 mph - 0.00 in   Overcast
6:51 PM 30.2 °F 25.4 °F 28.4 °F 93% 29.92 in 3.0 mi ENE 4.6 mph - 0.00 in   Overcast
6:53 PM 30.9 °F 26.2 °F 28.9 °F 92% 29.94 in 3.0 mi ENE 4.6 mph - 0.00 in   Overcast
7:11 PM 30.2 °F 25.4 °F 28.4 °F 93% 29.93 in 3.0 mi ENE 4.6 mph - N/A   Overcast
7:26 PM 30.2 °F 25.4 °F 28.4 °F 93% 29.93 in 3.0 mi East 4.6 mph - N/A   Overcast
7:39 PM 30.2 °F 25.4 °F 28.4 °F 93% 29.93 in 3.0 mi ENE 4.6 mph - N/A   Overcast
7:53 PM 30.9 °F 27.5 °F 28.9 °F 92% 29.95 in 3.0 mi ENE 3.5 mph - N/A   Overcast
8:02 PM 30.2 °F 26.7 °F 28.4 °F 93% 29.93 in 3.0 mi ENE 3.5 mph - N/A   Overcast
8:11 PM 30.2 °F 26.7 °F 28.4 °F 93% 29.92 in 3.0 mi ENE 3.5 mph - N/A   Overcast
8:53 PM 30.9 °F 27.5 °F 28.9 °F 92% 29.95 in 3.0 mi ENE 3.5 mph - N/A   Overcast
9:53 PM 30.9 °F - 28.9 °F 92% 29.94 in 3.0 mi Calm Calm - N/A   Overcast
10:53 PM 30.9 °F - 28.9 °F 92% 29.94 in 3.0 mi Calm Calm - N/A   Overcast
11:53 PM 30.9 °F - 28.9 °F 92% 29.93 in 3.0 mi Calm Calm - N/A   Overcast